METOP-C

Last updated on Mon Feb 16 2026 00:02:22 GMT+0000 (Coordinated Universal Time)

1 43689U 18087A 26046.57868792 .00000137 00000+0 82413-4 0 9996 2 43689 98.6816 108.3211 0001952 130.2870 229.8478 14.21513095377552
UTC large
Height (km)
Speed (km/s)
/
Latitude / Longitude
Inclination (degrees)
Orbital Period (minutes)
Azimuth
Elevation
Range (km)
Doppler Factor

Next 0 passes for location: London (51.5072 / 0.1276)

Sorry there are no passes over London.